Erie, PA

9:22 PM EST on November 21, 2017 (GMT -0500)
Erie International

Weather History for KERI - February, 2014

Change the Weather History Date:

Thursday, February 20, 2014

  Actual Average Record
Temperature  
Mean Temperature 42 °F 29 °F  
Max Temperature 54 °F 36 °F 66 °F (1930)
Min Temperature 30 °F 22 °F -17 °F (2015)
Degree Days  
Heating Degree Days 23 36  
Month to date heating degree days 909 746  
Since 1 July heating degree days 4490 4084  
Cooling Degree Days 0 0  
Month to date cooling degree days 0 0  
Year to date cooling degree days 0 0  
Moisture  
Dew Point 31 °F    
Average Humidity 68    
Maximum Humidity 92    
Minimum Humidity 43    
Precipitation  
Precipitation 0.61 in 0.08 in 0.61 in (2014)
Month to date precipitation 2.88 1.66  
Year to date precipitation 5.44 4.61  
Snow  
Snow 0.00 in 0.60 in - ()
Month to date snowfall 23.4 13.4  
Since 1 July snowfall 115.1 79.2  
Snow Depth 0.00 in    
Sea Level Pressure  
Sea Level Pressure 29.90 in    
Wind  
Wind Speed 13 mph (SE)    
Max Wind Speed 26 mph    
Max Gust Speed 36 mph    
Visibility 6 miles    
Events Rain    
T = Trace of Precipitation, MM = Missing Value Source: NWS Daily Summary

Daily Weather History Graph

Daily Weather History Graph

Search for Another Location

Airport or City:

Trip Planner

Search our weather history database for the weather conditions in past years. The results will help you decide how hot, cold, wet, or windy it might be!

Date:

Astronomy

Feb. 20, 2014 Rise Set
Actual Time 7:09 AM EST 5:59 PM EST
Civil Twilight 6:41 AM EST 6:28 PM EST
Nautical Twilight 6:08 AM EST 7:00 PM EST
Astronomical Twilight 5:36 AM EST 7:33 PM EST
Moon 11:59 PM EST (2/20) 9:45 AM EST (2/20)
Length of Visible Light 11h 47m
Length of Day
10h 50m
Waning Gibbous, 71% of the Moon is Illuminated
Feb 20
Waning Gibbous
Feb 22
Last Quarter
Mar 1
New
Mar 8
First Quarter
Mar 16
Full

Hourly Weather History & Observations

Time (EST) Temp. Windchill Dew Point Humidity Pressure Visibility Wind Dir Wind Speed Gust Speed Precip Events Conditions
12:51 AM 32.0 °F 25.6 °F 27.0 °F 82% 30.11 in 7.0 mi SSW 6.9 mph - N/A   Clear
1:51 AM 30.9 °F 26.2 °F 27.0 °F 85% 30.11 in 7.0 mi SSW 4.6 mph - N/A   Clear
2:51 AM 30.9 °F 25.2 °F 26.1 °F 82% 30.12 in 6.0 mi South 5.8 mph - N/A   Haze
3:51 AM 30.9 °F 23.5 °F 26.1 °F 82% 30.13 in 6.0 mi South 8.1 mph - N/A   Haze
4:51 AM 30.9 °F 24.3 °F 26.1 °F 82% 30.12 in 5.0 mi South 6.9 mph - N/A   Haze
5:51 AM 30.9 °F 23.5 °F 26.1 °F 82% 30.13 in 6.0 mi South 8.1 mph - N/A   Haze
6:51 AM 30.9 °F 21.7 °F 25.0 °F 79% 30.11 in 6.0 mi SSE 11.5 mph - N/A   Haze
7:51 AM 30.9 °F 21.2 °F 25.0 °F 79% 30.09 in 6.0 mi SSE 12.7 mph - N/A   Haze
8:51 AM 34.0 °F 24.6 °F 24.1 °F 67% 30.07 in 9.0 mi SE 13.8 mph - N/A   Clear
9:51 AM 35.1 °F 25.9 °F 25.0 °F 67% 30.04 in 9.0 mi SE 13.8 mph - N/A   Clear
10:51 AM 39.9 °F 32.5 °F 21.9 °F 49% 29.99 in 10.0 mi SE 12.7 mph - N/A   Clear
11:51 AM 43.0 °F 36.8 °F 21.0 °F 42% 29.94 in 10.0 mi ESE 11.5 mph 20.7 mph N/A   Partly Cloudy
12:51 PM 39.0 °F 35.7 °F 28.9 °F 67% 29.96 in 4.0 mi East 4.6 mph - 0.05 in Rain Rain
1:03 PM 37.4 °F 30.3 °F 28.4 °F 70% 29.90 in 2.5 mi East 10.4 mph - 0.06 in Rain Heavy Rain
1:17 PM 37.4 °F 29.3 °F 30.2 °F 75% 29.87 in 3.0 mi ENE 12.7 mph - 0.11 in Rain Rain
1:51 PM 37.0 °F 28.5 °F 32.0 °F 82% 29.86 in 2.0 mi NE 13.8 mph - 0.20 in Rain Heavy Rain
1:58 PM 37.4 °F 28.9 °F 32.0 °F 81% 29.82 in 2.0 mi ENE 13.8 mph - 0.03 in Rain Heavy Rain
2:10 PM 35.6 °F 27.5 °F 33.8 °F 93% 29.83 in 5.0 mi NE 11.5 mph - 0.05 in Rain Light Rain
2:36 PM 35.6 °F 25.9 °F 32.0 °F 87% 29.89 in 1.8 mi North 16.1 mph 20.7 mph 0.14 in Rain Heavy Rain
2:51 PM 35.1 °F 25.9 °F 32.0 °F 89% 29.90 in 1.2 mi NE 13.8 mph - 0.24 in Rain Heavy Rain
2:57 PM 35.6 °F 25.5 °F 33.8 °F 93% 29.86 in 1.5 mi East 17.3 mph 23.0 mph 0.03 in Rain Heavy Rain
3:15 PM 35.6 °F 26.6 °F 33.8 °F 93% 29.85 in 3.0 mi East 13.8 mph - 0.08 in Rain Light Rain
3:27 PM 35.6 °F 27.5 °F 33.8 °F 93% 29.84 in 4.0 mi East 11.5 mph - 0.08 in Rain Light Rain
3:44 PM 35.6 °F 27.5 °F 33.8 °F 93% 29.84 in 6.0 mi ENE 11.5 mph - 0.08 in Rain Light Rain
3:51 PM 36.0 °F 28.5 °F 33.1 °F 89% 29.86 in 4.0 mi ENE 10.4 mph - 0.09 in Rain Light Rain
4:25 PM 35.6 °F 28.6 °F 33.8 °F 93% 29.82 in 6.0 mi East 9.2 mph - 0.01 in   Overcast
4:51 PM 36.0 °F 30.3 °F 34.0 °F 93% 29.82 in 5.0 mi East 6.9 mph - 0.01 in   Overcast
5:51 PM 42.1 °F 34.9 °F 36.0 °F 79% 29.75 in 10.0 mi SSE 13.8 mph 21.9 mph N/A   Overcast
6:51 PM 44.1 °F 36.8 °F 37.0 °F 76% 29.71 in 10.0 mi SSE 16.1 mph 27.6 mph 0.00 in   Overcast
7:51 PM 46.0 °F 39.6 °F 37.9 °F 73% 29.69 in 10.0 mi SSE 15.0 mph 21.9 mph 0.00 in Rain Light Rain
8:51 PM 48.0 °F - 37.9 °F 68% 29.63 in 10.0 mi SSE 20.7 mph 32.2 mph 0.02 in   Overcast
9:51 PM 50.0 °F - 37.9 °F 63% 29.62 in 10.0 mi South 23.0 mph 31.1 mph 0.00 in   Overcast
10:51 PM 53.1 °F - 39.0 °F 59% 29.60 in 10.0 mi South 21.9 mph 31.1 mph N/A   Mostly Cloudy
11:51 PM 53.1 °F - 42.1 °F 66% 29.55 in 10.0 mi South 24.2 mph 33.4 mph 0.00 in   Mostly Cloudy